RYR36PW LZKZ-LFOB

Flight info

Callsign RYR36PW
Flight time N/A
Altitude 36000
Route TAKOS DCT TEPNI DCT KATQA DCT RUDAP DCT IBAGA Z715 COSJE T892 RIDSU Z114 DONAB Y180 DIK UN857 TOLVU DCT VEDUS
Aircraft B738/M-SDE2E3FGHIRWXY/LB1

Departure

Time 2026-04-22 17:35
Airport Košice International Airport (LZKZ)

Arrival

Time N/A
Airport Beauvais-Tillé airport (LFOB)
Time Latitude Longitude Altitude Speed Heading
2026-04-22 17:16 48.67276 21.23817 763 ft 0 kts 19°
2026-04-22 17:28 48.67277 21.23817 763 ft 1 kts 20°
2026-04-22 17:28 48.67287 21.23847 763 ft 6 kts 86°
2026-04-22 17:28 48.67296 21.23945 763 ft 13 kts 101°
2026-04-22 17:29 48.67272 21.24111 763 ft 19 kts 104°
2026-04-22 17:29 48.67239 21.24320 763 ft 20 kts 102°
2026-04-22 17:29 48.67170 21.24420 763 ft 15 kts 191°
2026-04-22 17:29 48.67038 21.24373 763 ft 24 kts 193°
2026-04-22 17:30 48.66863 21.24311 763 ft 25 kts 193°
2026-04-22 17:30 48.66702 21.24255 763 ft 23 kts 193°
2026-04-22 17:30 48.66549 21.24203 763 ft 22 kts 193°
2026-04-22 17:30 48.66403 21.24152 763 ft 21 kts 193°
2026-04-22 17:31 48.66263 21.24103 763 ft 20 kts 193°
2026-04-22 17:31 48.66129 21.24057 763 ft 19 kts 193°
2026-04-22 17:31 48.66003 21.24011 763 ft 18 kts 193°
2026-04-22 17:31 48.65882 21.23967 763 ft 17 kts 193°
2026-04-22 17:32 48.65806 21.23940 763 ft 17 kts 192°
2026-04-22 17:32 48.65703 21.23906 763 ft 20 kts 192°
2026-04-22 17:32 48.65575 21.23864 763 ft 19 kts 192°
2026-04-22 17:32 48.65451 21.23821 763 ft 18 kts 193°
2026-04-22 17:33 48.65335 21.23777 763 ft 17 kts 193°
2026-04-22 17:33 48.65225 21.23739 763 ft 16 kts 193°
2026-04-22 17:33 48.65121 21.23704 763 ft 15 kts 193°
2026-04-22 17:33 48.65023 21.23671 763 ft 14 kts 189°
2026-04-22 17:34 48.64957 21.23662 763 ft 6 kts 292°
2026-04-22 17:34 48.64994 21.23659 763 ft 7 kts
2026-04-22 17:34 48.65130 21.23706 763 ft 51 kts 13°
2026-04-22 17:34 48.65714 21.23911 763 ft 122 kts 13°
2026-04-22 17:35 48.66714 21.24265 1005 ft 161 kts 13°
2026-04-22 17:35 48.67819 21.24680 1873 ft 165 kts 14°
2026-04-22 17:35 48.68921 21.25077 2915 ft 159 kts 13°
2026-04-22 17:35 48.70008 21.25432 3728 ft 163 kts 11°
2026-04-22 17:36 48.71163 21.25818 4294 ft 174 kts 11°
2026-04-22 17:36 48.72340 21.26220 4998 ft 175 kts 11°
2026-04-22 17:36 48.73561 21.26304 5649 ft 179 kts 345°
2026-04-22 17:36 48.74593 21.25282 6331 ft 183 kts 310°
2026-04-22 17:37 48.75046 21.23457 6956 ft 194 kts 278°
2026-04-22 17:37 48.74918 21.21316 7274 ft 217 kts 260°
2026-04-22 17:37 48.74527 21.18987 7568 ft 240 kts 259°
2026-04-22 17:37 48.74090 21.16418 7916 ft 261 kts 258°
2026-04-22 17:38 48.73614 21.13691 8470 ft 274 kts 257°
2026-04-22 17:38 48.73121 21.10858 9168 ft 281 kts 257°
2026-04-22 17:38 48.72618 21.07971 9958 ft 285 kts 257°
2026-04-22 17:38 48.72104 21.05037 10695 ft 292 kts 258°
2026-04-22 17:39 48.71780 21.01937 11097 ft 307 kts 269°
2026-04-22 17:39 48.71841 20.98618 11440 ft 323 kts 279°
2026-04-22 17:39 48.72491 20.91723 12758 ft 336 kts 281°
2026-04-22 17:40 48.72828 20.88183 13445 ft 341 kts 281°
2026-04-22 17:40 48.73167 20.84600 14134 ft 346 kts 281°
2026-04-22 17:40 48.73507 20.80964 14789 ft 351 kts 281°
2026-04-22 17:40 48.73846 20.77331 15432 ft 355 kts 281°
2026-04-22 17:41 48.74192 20.73597 16078 ft 360 kts 281°
2026-04-22 17:41 48.74539 20.69827 16699 ft 364 kts 281°
2026-04-22 17:41 48.74891 20.65998 17309 ft 369 kts 281°
2026-04-22 17:41 48.75243 20.62141 17906 ft 373 kts 281°
2026-04-22 17:42 48.75600 20.58206 18494 ft 377 kts 281°
2026-04-22 17:42 48.75958 20.54253 19074 ft 381 kts 281°
2026-04-22 17:42 48.76318 20.50259 19661 ft 385 kts 281°
2026-04-22 17:42 48.76689 20.46210 20213 ft 389 kts 282°
2026-04-22 17:43 48.77097 20.42147 20767 ft 392 kts 282°
2026-04-22 17:43 48.77501 20.38038 21294 ft 396 kts 282°
2026-04-22 17:43 48.77898 20.33889 21808 ft 400 kts 282°
2026-04-22 17:43 48.78293 20.29696 22326 ft 403 kts 282°
2026-04-22 17:44 48.78685 20.25468 22812 ft 407 kts 282°
2026-04-22 17:44 48.79077 20.21201 23292 ft 410 kts 282°
2026-04-22 17:44 48.79464 20.16949 23758 ft 414 kts 282°
2026-04-22 17:44 48.79855 20.12613 24212 ft 417 kts 281°
2026-04-22 17:45 48.80248 20.08235 24650 ft 420 kts 281°
2026-04-22 17:45 48.80641 20.03822 25062 ft 424 kts 281°
2026-04-22 17:45 48.81036 19.99367 25482 ft 427 kts 281°
2026-04-22 17:45 48.81432 19.94879 25884 ft 431 kts 281°
2026-04-22 17:46 48.81830 19.90351 26261 ft 434 kts 281°
2026-04-22 17:46 48.82228 19.85796 26656 ft 437 kts 281°
2026-04-22 17:46 48.82626 19.81209 27030 ft 440 kts 281°
2026-04-22 17:46 48.83027 19.76571 27369 ft 444 kts 281°
2026-04-22 17:47 48.83428 19.71917 27713 ft 447 kts 281°
2026-04-22 17:47 48.83821 19.67325 28063 ft 450 kts 281°
2026-04-22 17:47 48.84233 19.62488 28391 ft 453 kts 281°
2026-04-22 17:47 48.84637 19.57733 28716 ft 456 kts 281°
2026-04-22 17:48 48.85041 19.52946 29022 ft 459 kts 280°
2026-04-22 17:48 48.85445 19.48124 29321 ft 462 kts 281°
2026-04-22 17:48 48.85852 19.43260 29632 ft 464 kts 280°